TimeEST,TemperatureF,Dew PointF,Humidity,Sea Level PressureIn,VisibilityMPH,Wind Direction,Wind SpeedMPH,Gust SpeedMPH,PrecipitationIn,Events,Conditions,WindDirDegrees,DateUTC
12:15 AM,29.3,25.7,86,30.40,10.0,Calm,Calm,-,N/A,,Clear,0,2012-12-31 05:15:00
12:35 AM,28.9,25.9,88,30.39,10.0,Calm,Calm,-,N/A,,Clear,0,2012-12-31 05:35:00
1:35 AM,28.4,26.4,92,30.39,10.0,Calm,Calm,-,N/A,,Clear,0,2012-12-31 06:35:00
1:55 AM,28.4,26.2,92,30.39,10.0,Calm,Calm,-,N/A,,Clear,0,2012-12-31 06:55:00
2:35 AM,28.4,26.6,93,30.38,10.0,Calm,Calm,-,N/A,,Clear,0,2012-12-31 07:35:00
2:55 AM,27.1,25.7,94,30.37,10.0,Calm,Calm,-,N/A,,Clear,0,2012-12-31 07:55:00
3:15 AM,27.0,26.2,97,30.37,10.0,Calm,Calm,-,N/A,,Clear,0,2012-12-31 08:15:00
3:35 AM,26.6,25.9,97,30.37,10.0,Calm,Calm,-,N/A,,Clear,0,2012-12-31 08:35:00
3:55 AM,27.0,26.2,97,30.38,10.0,Calm,Calm,-,N/A,,Clear,0,2012-12-31 08:55:00
4:15 AM,26.6,25.5,96,30.38,10.0,Calm,Calm,-,N/A,,Clear,0,2012-12-31 09:15:00
4:35 AM,26.1,25.2,96,30.38,10.0,Calm,Calm,-,N/A,,Clear,0,2012-12-31 09:35:00
4:55 AM,25.7,25.5,99,30.39,10.0,Calm,Calm,-,N/A,,Clear,0,2012-12-31 09:55:00
5:15 AM,25.7,25.2,98,30.39,10.0,Calm,Calm,-,N/A,,Clear,0,2012-12-31 10:15:00
5:55 AM,25.3,24.6,97,30.39,10.0,Calm,Calm,-,N/A,,Clear,0,2012-12-31 10:55:00
6:15 AM,25.2,25.0,99,30.39,10.0,Calm,Calm,-,N/A,,Clear,0,2012-12-31 11:15:00
6:35 AM,25.2,25.0,99,30.39,7.0,Calm,Calm,-,N/A,,Clear,0,2012-12-31 11:35:00
6:55 AM,25.2,25.2,100,30.39,7.0,Calm,Calm,-,N/A,,Clear,0,2012-12-31 11:55:00
7:15 AM,25.5,25.5,100,30.39,7.0,Calm,Calm,-,N/A,,Clear,0,2012-12-31 12:15:00
7:35 AM,25.7,25.7,100,30.39,7.0,Calm,Calm,-,N/A,,Clear,0,2012-12-31 12:35:00
7:55 AM,26.8,26.4,99,30.39,10.0,Calm,Calm,-,N/A,,Clear,0,2012-12-31 12:55:00
8:15 AM,28.6,27.5,96,30.39,10.0,Calm,Calm,-,N/A,,Clear,0,2012-12-31 13:15:00
8:35 AM,30.2,28.4,93,30.40,10.0,Calm,Calm,-,N/A,,Clear,0,2012-12-31 13:35:00
8:55 AM,30.9,28.0,89,30.40,10.0,Calm,Calm,-,N/A,,Clear,0,2012-12-31 13:55:00
9:15 AM,32.4,28.4,85,30.40,10.0,SSW,3.5,-,N/A,,Clear,200,2012-12-31 14:15:00
9:35 AM,33.6,28.4,81,30.40,10.0,SW,3.5,-,N/A,,Clear,220,2012-12-31 14:35:00
9:55 AM,34.0,29.5,84,30.41,10.0,Calm,Calm,-,N/A,,Clear,0,2012-12-31 14:55:00
10:15 AM,35.8,30.0,80,30.41,10.0,Calm,Calm,-,N/A,,Clear,0,2012-12-31 15:15:00
10:35 AM,37.6,30.2,75,30.39,10.0,SSW,3.5,-,N/A,,Clear,210,2012-12-31 15:35:00
10:55 AM,40.6,30.9,68,30.38,10.0,SW,4.6,-,N/A,,Clear,230,2012-12-31 15:55:00
11:15 AM,43.2,30.7,62,30.38,10.0,WSW,4.6,-,N/A,,Clear,250,2012-12-31 16:15:00
11:35 AM,45.9,29.5,53,30.36,10.0,SW,6.9,-,N/A,,Clear,230,2012-12-31 16:35:00
11:55 AM,48.6,30.0,49,30.35,10.0,WSW,8.1,-,N/A,,Clear,250,2012-12-31 16:55:00
12:15 PM,49.6,28.9,45,30.33,10.0,WSW,10.4,-,N/A,,Clear,240,2012-12-31 17:15:00
12:35 PM,50.5,27.7,41,30.31,10.0,SW,10.4,-,N/A,,Clear,230,2012-12-31 17:35:00
12:55 PM,51.6,26.2,37,30.29,10.0,SSW,8.1,-,N/A,,Clear,210,2012-12-31 17:55:00
1:15 PM,52.0,26.6,37,30.29,10.0,SSW,10.4,16.1,N/A,,Clear,200,2012-12-31 18:15:00
1:35 PM,52.3,25.9,36,30.28,10.0,SW,11.5,17.3,N/A,,Clear,220,2012-12-31 18:35:00
1:55 PM,52.2,25.3,35,30.28,10.0,WSW,10.4,-,N/A,,Clear,240,2012-12-31 18:55:00
2:15 PM,53.4,26.4,35,30.27,10.0,SW,5.8,-,N/A,,Clear,220,2012-12-31 19:15:00
2:35 PM,53.2,25.9,35,30.26,10.0,SW,10.4,-,N/A,,Clear,230,2012-12-31 19:35:00
2:55 PM,53.2,25.5,34,30.24,10.0,SSW,6.9,-,N/A,,Clear,200,2012-12-31 19:55:00
3:15 PM,53.6,25.7,34,30.25,10.0,SSW,8.1,-,N/A,,Clear,210,2012-12-31 20:15:00
3:35 PM,53.2,27.0,36,30.24,10.0,SSW,6.9,-,N/A,,Clear,210,2012-12-31 20:35:00
3:55 PM,54.0,28.4,37,30.24,10.0,SW,8.1,-,N/A,,Clear,220,2012-12-31 20:55:00
4:15 PM,54.0,30.4,41,30.23,10.0,SSW,3.5,-,N/A,,Clear,210,2012-12-31 21:15:00
4:35 PM,53.2,32.0,44,30.22,10.0,SW,4.6,-,N/A,,Clear,230,2012-12-31 21:35:00
4:55 PM,52.0,33.3,49,30.22,10.0,Calm,Calm,-,N/A,,Clear,0,2012-12-31 21:55:00
5:15 PM,50.0,33.8,54,30.22,10.0,SSW,3.5,-,N/A,,Clear,210,2012-12-31 22:15:00
5:35 PM,49.3,34.7,57,30.21,10.0,Calm,Calm,-,N/A,,Clear,0,2012-12-31 22:35:00
5:55 PM,48.6,35.6,61,30.21,10.0,SSW,3.5,-,N/A,,Clear,200,2012-12-31 22:55:00
6:15 PM,47.5,35.8,64,30.21,10.0,South,3.5,-,N/A,,Clear,190,2012-12-31 23:15:00
6:35 PM,47.7,36.0,64,30.22,10.0,Calm,Calm,-,N/A,,Scattered Clouds,0,2012-12-31 23:35:00
6:55 PM,47.7,36.5,65,30.22,10.0,South,3.5,-,N/A,,Mostly Cloudy,190,2012-12-31 23:55:00
7:15 PM,48.2,36.9,65,30.21,10.0,Calm,Calm,-,N/A,,Overcast,0,2013-01-01 00:15:00
7:35 PM,48.6,37.4,65,30.21,10.0,Calm,Calm,-,N/A,,Overcast,0,2013-01-01 00:35:00
7:55 PM,50.0,37.4,62,30.20,10.0,SSW,3.5,-,N/A,,Overcast,210,2013-01-01 00:55:00
8:15 PM,49.1,38.1,66,30.21,10.0,Calm,Calm,-,N/A,,Overcast,0,2013-01-01 01:15:00
8:35 PM,48.4,38.3,68,30.21,10.0,Calm,Calm,-,N/A,,Overcast,0,2013-01-01 01:35:00
8:55 PM,48.2,38.5,69,30.19,10.0,Calm,Calm,-,N/A,,Overcast,0,2013-01-01 01:55:00
9:15 PM,48.6,38.7,69,30.17,10.0,South,3.5,-,N/A,,Overcast,190,2013-01-01 02:15:00
9:35 PM,48.6,39.0,70,30.17,10.0,Calm,Calm,-,N/A,,Overcast,0,2013-01-01 02:35:00
9:55 PM,48.0,39.2,72,30.18,10.0,Calm,Calm,-,N/A,,Mostly Cloudy,0,2013-01-01 02:55:00
10:15 PM,45.5,38.8,78,30.18,10.0,Calm,Calm,-,N/A,,Scattered Clouds,0,2013-01-01 03:15:00
10:35 PM,45.7,39.2,78,30.17,10.0,Calm,Calm,-,N/A,,Clear,0,2013-01-01 03:35:00
10:55 PM,45.9,39.4,78,30.16,10.0,Calm,Calm,-,N/A,,Clear,0,2013-01-01 03:55:00
11:15 PM,45.9,39.6,79,30.16,10.0,Calm,Calm,-,N/A,,Clear,0,2013-01-01 04:15:00
11:35 PM,45.7,39.7,80,30.16,10.0,Calm,Calm,-,N/A,,Clear,0,2013-01-01 04:35:00
11:55 PM,45.5,40.1,81,30.16,10.0,Calm,Calm,-,N/A,,Clear,0,2013-01-01 04:55:00